Probability
0 0 0 0 0 0 0 0 0 0 0 0 0 0 0 0 0 0 0 0 0 0 0 0 0 0 0 0 0 0 0 0 0 0 0 0 0 0 0 0 0 0 0
0 0 0 0 0 0 0 0 0 0 0 0 0 0 0 0 0 0 0 0 0 0 0 0 0 0 0 0 0 0 0 0 0 0 0 0 0 0 0 0 0 0 0
0 0 0 0 0 0 0 0 0 0 0 0 0 0 0 0 0 0 0 0 0 0 0 0 0 0 0 0 0 0 0 0 0 0 0 0 0 0 0 0 0 0 0
0 0 0 0 0 0 0 0 0 0 0 0 0 0 0 0 0 0 0 0 0 0 0 0 0 0 0 0 0 0 0 0 0 0 0 0 0 0 0 0 0 0 0
0 0 0 0 0 0 0 0 0 0 0 0 0 0 0 0 0 0 0 0 0 0 0 0 0 0 0 0 0 0 0 0 0 0 0 0 0 0 0 0 0 0 0
0 0 0 0 0 0 0 0 0 0 0 0 0 0 0 0 0 0 0 0 0 0 0 0 0 0 0 0 0 0 0 0 0 0 0 0 0 0 0 0 0 0 0
0 0 0 0 0 0 0 0 0 0 0 0 0 0 0 0 0 0 0 0 0 0 0 0 0 0 0 0 0 0 0 0 0 0 0 0 0 0 0 0 0 0 0
0 0 0 0 0 0 0 0 0 0 0 0 0 0 0 0 0 0 0 0 0 0 0 0 0 0 0 0 0 0 0 0 0 0 0 0 0 0 0 0 0 0 0
0 0 0 0 0 0 0 0 0 0 0 0 0 0 0 0 0 0 0 0 0 0 0 0 0 0 0 0 0 0 0 0 0 0 0 0 0 0 0 0 0 0 0
0 0 0 0 0 0 0 0 0 0 0 0 0 0 0 0 0 0 0 0 0 0 0 0 0 0 0 0 0 0 0 0 0 0 0 0 0 0 0 0 0 0 0
0 0 0 0 0 0 0 0 0 0 0 0 0 0 0 0 0 0 0 0 0 0 0 0 0 0 0 0 0 0 0 0 0 0 0 0 0 0 0 0 0 0 0
0 0 0 0 0 0 0 0 0 0 0 0 0 0 0 0 0 0 0 0 0 0 0 0 0 0 0 0 0 0 0 0 0 0 0 0 0 0 0 0 0 0 0
0 0 0 0 0 0 0 0 0 0 0 0 0 0 0 0 0 0 0 0 0 0 0 0 0 0 0 0 0 0 0 0 0 0 0 0 0 0 0 0 0 0 0
0 0 0 0 0 0 0 0 0 0 0 0 0 0 0 0 0 0 0 0 0 0 0 0 0 0 0 0 0 0 0 0 0 0 0 0 0 0 0 0 0 0 0
0 0 0 0 0 0 0 0 0 0 0 0 0 0 0 0 0 0 0 0 0 0 0 0 0 0 0 0 0 0 0 0 0 0 0 0 0 0 0 0 0 0 0
0 0 0 0 0 0 0 0 0 0 0 0 0 0 0 0 0 0 0 0 0 0 0 0 0 0 0 0 0 0 0 0 0 0 0 0 0 0 0 0 0 0 0
0 0 0 0 0 0 0 0 0 0 0 0 0 0 0 0 0 0 0 0 0 0 0 0 0 0 0 0 0 0 0 0 0 0 0 0 0 0 0 0 0 0 0
0 0 0 0 0 0 0 0 0 0 0 0 0 0 0 0 0 0 0 0 0 0 0 0 0 0 0 0 0 0 0 0 0 0 0 0 0 0 0 0 0 0 0
0 0 0 0 0 0 0 0 0 0 0 0 0 0 0 0 0 0 0 0 0 0 0 0 0 0 0 0 0 0 0 0 0 0 0 0 0 0 0 0 0 0 0
0 0 0 0 0 0 0 0 0 0 0 0 0 0 0 0 0 0 0 0 0 0 0 0 0 0 0 0 0 0 0 0 0 0 0 0 0 0 0 0 0 0 0
0 0 0 0 0 0 0 0 0 0 0 0 0 0 0 0 0 0 0 0 0 0 0 0 0 0 0 0 0 0 0 0 0 0 0 0 0 0 0 0 0 0 0
0 0 0 0 0 0 0 0 0 0 0 0 0 0 0 0 0 0 0 0 0 0 0 0 0 0 0 0 0 0 0 0 0 0 0 0 0 0 0 0 0 0 0
0 0 0 0 0 0 0 0 0 0 0 0 0 0 0 0 0 0 0 0 0 0 0 0 0 0 0 0 0 0 0 0 0 0 0 0 0 0 0 0 0 0 0
0 0 0 0 0 0 0 0 0 0 0 0 0 0 0 0 0 0 0 0 0 0 0 0 0 0 0 0 0 0 0 0 0 0 0 0 0 0 0 0 0 0 0
0 0 0 0 0 0 0 0 0 0 0 0 0 0 0 0 0 0 0 0 0 0 0 0 0 0 0 0 0 0 0 0 0 0 0 0 0 0 0 0 0 0 0
0 0 0 0 0 0 0 0 0 0 0 0 0 0 0 0 0 0 0 0 0 0 0 0 0 0 0 0 0 0 0 0 0 0 0 0 0 0 0 0 0 0 0
Wind_Speed
7 8 10 10 10 10 11 13 12 12 14 16 17 17 17 17 15 15 14 14 14 12 10 11 10 9 8 6 6 6 6 5 5 3 2 1 3 4 6 6 6 7 7
7 8 10 9 9 11 13 13 13 14 15 16 16 18 18 18 18 18 17 17 17 16 14 13 12 10 10 8 7 8 7 6 6 5 2 3 5 4 7 8 8 7 7
9 9 9 10 11 14 15 13 13 14 14 15 17 19 19 19 19 19 18 17 17 17 16 16 14 14 13 9 9 8 7 7 6 5 4 4 5 6 7 7 8 6 7
13 10 10 11 12 14 12 12 13 14 15 17 18 18 18 18 18 18 18 17 16 15 15 15 15 16 15 13 11 10 8 8 7 6 5 5 6 6 5 4 4 4 5
15 13 12 11 10 10 11 11 12 14 15 15 15 15 15 16 17 19 19 18 18 16 15 15 14 14 17 15 11 11 10 8 7 6 6 5 5 4 3 3 6 5 6
14 14 13 11 9 9 10 10 11 13 12 13 16 16 18 16 24 30 22 18 18 18 17 15 14 14 17 22 20 18 16 11 9 7 6 6 6 4 3 5 7 8 5
13 13 13 12 11 9 8 9 11 12 12 15 15 16 18 20 28 31 31 18 17 17 17 16 13 13 15 13 18 21 19 20 17 10 8 8 5 3 4 7 7 8 9
13 13 13 13 13 10 8 9 10 9 12 14 15 16 15 18 28 30 30 18 15 15 16 17 16 16 16 16 13 11 10 10 11 7 5 4 5 5 7 8 9 8 9
13 13 13 14 15 13 10 9 8 9 11 12 12 14 15 16 27 29 29 13 13 15 14 15 16 16 23 24 15 12 11 9 12 14 13 11 12 12 9 4 3 5 6
14 15 14 13 14 14 13 10 8 8 10 10 10 12 13 12 23 30 31 12 12 12 12 13 16 17 24 26 15 13 12 10 8 7 8 8 6 6 10 6 4 4 4
15 16 16 14 13 13 13 9 7 7 7 9 9 8 10 12 20 30 31 13 13 13 12 12 13 24 24 25 19 12 13 10 8 7 4 3 3 4 5 5 5 6 6
15 17 17 17 14 11 12 10 8 8 9 9 8 8 8 10 15 23 32 26 19 13 12 11 13 26 24 24 18 16 18 12 5 4 2 3 3 3 4 5 7 8 10
16 18 18 18 16 13 12 11 8 8 9 9 9 10 8 8 13 24 28 31 28 14 10 17 20 25 24 18 19 18 10 6 5 4 4 3 3 3 4 5 7 8 12
17 18 17 17 17 15 11 10 10 10 10 10 11 11 10 9 10 12 13 17 23 18 13 16 23 24 17 12 9 9 6 6 6 5 4 3 2 3 4 5 6 7 8
18 18 17 16 16 15 13 11 12 12 13 13 11 11 12 13 16 21 16 14 14 14 14 11 10 11 10 8 7 6 5 6 5 5 4 3 2 3 4 5 5 6 8
18 17 14 13 13 13 14 13 20 20 22 26 22 17 13 16 19 26 29 28 28 28 19 14 13 12 11 10 9 8 6 6 5 4 4 3 2 3 5 5 6 7 9
19 18 15 14 14 14 13 13 11 12 22 25 26 25 21 19 22 26 29 30 30 31 15 13 12 12 10 10 9 8 7 6 5 4 3 2 2 3 4 6 7 8 9
19 19 17 15 14 14 14 13 11 9 8 9 16 24 24 23 23 25 28 26 21 20 11 12 12 11 10 9 9 7 7 6 4 4 3 2 2 3 5 6 7 9 10
18 15 14 14 14 14 14 13 11 10 9 6 4 10 18 21 23 24 26 16 12 12 10 10 9 10 9 8 8 7 6 5 4 3 3 3 3 3 5 7 8 11 11
16 21 20 15 14 13 13 12 9 8 8 8 8 7 8 10 10 13 15 10 10 10 9 9 8 8 8 8 7 6 5 4 4 3 3 3 3 4 7 8 9 10 10
15 16 20 16 14 13 11 10 8 8 7 7 6 9 16 9 8 8 8 9 10 10 9 9 8 8 7 6 6 6 6 4 4 4 3 3 4 5 6 8 9 10 10
14 14 12 11 10 9 8 7 6 6 6 6 4 7 16 7 7 8 8 9 9 8 8 8 7 6 6 6 7 6 5 5 4 4 4 4 4 6 7 8 9 10 10
12 11 9 6 4 3 3 3 4 4 4 4 4 5 6 8 9 10 10 9 9 8 7 7 7 6 4 4 4 5 5 5 5 5 4 4 5 6 7 9 11 11 11
10 8 6 4 3 3 4 4 4 5 7 8 8 9 9 10 10 11 10 9 9 8 6 6 5 7 7 5 3 3 4 4 4 4 7 6 7 7 8 9 9 10 11
9 8 8 7 6 6 6 7 7 9 9 9 9 9 9 9 10 9 8 8 9 8 7 5 4 4 6 6 6 5 7 9 8 6 6 7 9 10 10 10 9 9 11
9 9 8 8 7 7 7 8 8 9 8 8 8 8 8 8 9 8 8 8 7 6 5 3 3 4 4 5 7 9 10 11 11 12 9 8 9 9 8 8 9 9 11
Wind_Direction
240 232 231 225 216 208 206 206 200 192 186 185 187 188 188 189 189 190 191 183 186 185 183 184 184 171 172 173 173 178 180 171 203 238 260 268 297 293 300 293 287 288 291
274 249 238 232 217 214 217 211 201 197 193 190 187 189 191 192 191 193 193 188 189 188 187 185 185 177 177 177 181 186 186 183 188 208 234 246 248 262 274 278 284 286 286
309 277 255 238 225 224 223 214 205 201 196 192 190 193 194 193 194 196 194 192 193 191 187 187 185 179 183 181 183 186 186 188 188 195 215 226 243 241 246 249 253 257 266
326 304 277 254 238 233 227 216 209 203 200 198 198 198 196 193 194 194 193 193 194 192 189 188 184 185 185 180 184 187 183 187 189 201 218 231 240 237 239 246 268 241 260
330 319 302 283 259 243 230 220 211 207 206 201 200 200 196 195 195 193 193 192 191 190 188 188 187 185 187 182 182 183 182 186 186 197 212 225 237 242 261 279 303 301 279
330 324 315 306 285 259 240 223 214 211 206 201 203 202 201 203 203 198 192 192 190 189 187 185 182 179 188 190 193 192 190 185 186 192 208 226 242 253 283 305 311 321 315
327 325 324 317 304 284 259 231 219 212 204 207 208 205 209 210 205 202 198 190 191 191 187 181 180 182 182 186 196 197 200 204 199 192 209 225 240 248 288 297 295 297 291
324 325 328 325 315 301 277 249 232 216 210 210 210 209 211 212 208 204 199 192 192 191 188 183 180 177 183 182 187 197 201 212 219 222 224 230 237 249 254 271 288 294 291
322 323 325 324 317 307 288 265 242 223 217 215 210 208 210 210 210 205 196 186 189 190 186 183 181 176 183 182 181 190 200 212 223 224 228 237 250 267 279 291 298 303 295
320 318 316 314 309 303 291 274 250 229 222 214 214 209 207 205 210 206 195 181 184 183 181 183 182 178 182 182 180 185 197 201 201 217 233 250 263 277 283 275 263 262 273
315 313 311 307 301 295 289 274 250 230 218 213 212 206 203 200 212 210 198 181 183 180 180 181 184 184 185 188 186 190 203 196 200 198 197 210 239 256 262 256 248 246 255
311 309 307 306 300 291 281 270 247 225 217 213 209 204 201 197 207 216 205 188 185 182 181 179 183 185 186 191 191 192 205 199 162 159 179 224 243 251 260 265 266 264 262
307 304 303 302 297 286 272 262 245 224 219 215 209 210 204 200 209 216 211 196 190 182 179 179 180 184 185 190 194 193 181 160 155 175 197 217 225 256 280 284 283 277 272
301 299 298 297 294 286 269 252 238 226 220 216 212 213 205 199 201 206 208 198 189 182 175 177 178 182 175 159 169 171 153 163 173 183 190 209 242 269 275 279 284 292 287
294 292 291 288 286 284 271 253 242 233 223 217 216 208 203 204 203 200 196 194 182 171 162 162 166 169 161 154 152 153 160 168 176 178 184 199 241 268 275 281 278 284 281
289 288 286 286 285 283 280 271 253 245 239 234 227 217 218 213 203 204 205 199 184 172 165 169 171 171 170 167 166 166 172 176 175 173 178 195 232 263 280 284 282 278 281
277 281 281 280 278 277 275 269 265 255 245 238 233 227 218 211 208 207 206 199 187 175 172 175 174 173 169 166 165 164 164 161 159 166 176 195 229 263 279 282 282 280 281
276 276 274 272 270 268 267 264 256 244 239 236 230 228 221 211 208 208 205 196 190 179 174 173 171 167 164 161 158 155 151 152 157 162 175 198 223 256 271 273 275 276 284
278 274 270 266 263 262 262 259 248 235 231 225 205 220 218 209 204 207 203 197 184 169 165 165 161 157 154 150 147 146 148 153 154 156 183 209 221 236 256 265 274 278 283
276 271 268 264 261 257 255 250 237 225 220 216 211 204 196 191 194 198 198 181 162 154 153 151 148 144 142 142 143 144 147 153 159 175 197 213 226 240 257 267 273 280 286
279 274 268 262 255 249 245 236 224 215 211 209 206 204 199 190 182 177 167 150 142 140 141 141 138 138 136 138 143 149 155 162 171 185 201 218 232 246 257 266 272 277 286
285 280 272 263 253 243 231 220 209 203 198 194 185 207 199 165 140 130 121 115 113 116 126 131 130 134 145 153 156 158 166 177 186 191 205 224 240 252 260 265 268 280 292
297 296 293 281 259 218 188 171 167 162 154 139 121 107 110 107 109 108 105 104 104 107 110 117 123 127 130 140 155 168 178 192 190 183 197 225 243 251 257 264 272 284 294
318 324 337 356 29 57 77 89 98 101 98 93 91 92 95 98 100 102 104 105 105 103 102 107 120 141 153 161 179 199 217 220 202 199 204 222 242 255 261 265 273 284 293
344 356 9 23 38 52 65 73 79 82 83 86 89 91 93 96 99 101 102 103 104 106 110 114 124 150 176 192 203 215 230 237 230 214 210 223 241 251 259 268 276 284 290
2 10 19 27 38 48 59 68 72 76 81 84 88 92 96 99 101 103 103 103 105 110 119 134 167 188 204 218 231 236 239 241 237 228 219 231 242 253 263 271 277 283 288